Tracking 30995 objects as of 5-Jul-2025
HD Live streaming from Space Station
objects crossing your sky now

TANSUO 1

Track TANSUO 1 now!
10-day predictions
TANSUO 1 is classified as:


NORAD ID: 28220
Int'l Code: 2004-012A
Perigee: 496.7 km
Apogee: 508.0 km
Inclination: 97.9 °
Period: 94.5 minutes
Semi major axis: 6873 km
RCS: 1.6951 m2 (large)
Launch date: April 18, 2004
Source: People's Republic of China (PRC)
Launch site: Xichang Space Center, China (XSC)
Your satellite tracking list
Your tracking list is empty




NASA's NSSDC Master Catalog

Two Line Element Set (TLE):
1 28220U 04012A   25186.61127165  .00007295  00000-0  30844-3 0  9997
2 28220  97.9160 239.1313 0008173 145.9054 214.2708 15.23524735158158
Source of the keplerian elements: AFSPC